| time (UTC) | temp F | wind direction | speed MPH | gust MPH | rain 1hr in | rain 24hr in | rain mn in | humidity % | barometer mb |
| 20260505210037 | 57 | 185 | 9.0 | 14.0 | 0.06 | 0.75 | 0.75 | 95 | 1007.5 |
| 20260505204535 | 58 | 181 | 6.0 | 10.0 | 0.08 | 0.74 | 0.74 | 95 | 1007.3 |
| 20260505203034 | 58 | 189 | 11.0 | 16.0 | 0.10 | 0.74 | 0.74 | 94 | 1007.3 |
| 20260505201533 | 58 | 197 | 6.0 | 11.0 | 0.09 | 0.72 | 0.72 | 94 | 1007.3 |
| 20260505200041 | 58 | 172 | 6.0 | 10.0 | 0.10 | 0.69 | 0.69 | 94 | 1007.5 |
| 20260505194533 | 59 | 192 | 5.0 | 10.0 | 0.09 | 0.66 | 0.66 | 94 | 1007.7 |
| 20260505193035 | 58 | 216 | 6.0 | 11.0 | 0.10 | 0.64 | 0.64 | 94 | 1008.1 |
| 20260505191531 | 58 | 215 | 6.0 | 11.0 | 0.09 | 0.63 | 0.63 | 93 | 1008.2 |
| 20260505190031 | 59 | 222 | 5.0 | 11.0 | 0.06 | 0.59 | 0.59 | 92 | 1008.4 |
| 20260505184533 | 59 | 192 | 8.0 | 13.0 | 0.05 | 0.56 | 0.56 | 91 | 1008.5 |
| 20260505183041 | 59 | 189 | 6.0 | 12.0 | 0.04 | 0.54 | 0.54 | 91 | 1008.3 |
| 20260505181530 | 60 | 180 | 6.0 | 12.0 | 0.04 | 0.54 | 0.54 | 90 | 1008.3 |
| 20260505180029 | 60 | 206 | 8.0 | 12.0 | 0.03 | 0.53 | 0.53 | 88 | 1008.3 |
| 20260505174529 | 61 | 197 | 6.0 | 11.0 | 0.01 | 0.51 | 0.51 | 85 | 1008.3 |
| 20260505173029 | 62 | 231 | 7.0 | 12.0 | 0.00 | 0.50 | 0.50 | 84 | 1008.4 |
| 20260505171528 | 62 | 226 | 5.0 | 10.0 | 0.00 | 0.50 | 0.50 | 84 | 1008.4 |
| 20260505170029 | 62 | 201 | 4.0 | 14.0 | 0.00 | 0.50 | 0.50 | 83 | 1008.6 |
| 20260505164527 | 62 | 282 | 5.0 | 11.0 | 0.00 | 0.50 | 0.50 | 84 | 1008.4 |
| 20260505163028 | 62 | 260 | 4.0 | 10.0 | 0.00 | 0.50 | 0.50 | 83 | 1008.6 |
| 20260505161526 | 62 | 245 | 3.0 | 10.0 | 0.00 | 0.50 | 0.50 | 84 | 1008.6 |
| 20260505153024 | 62 | 228 | 6.0 | 13.0 | 0.00 | 0.50 | 0.50 | 84 | 1008.8 |
| 20260505151521 | 62 | 195 | 7.0 | 15.0 | 0.00 | 0.50 | 0.50 | 83 | 1008.6 |
| 20260505124511 | 56 | 216 | 7.0 | 11.0 | 0.00 | 0.50 | 0.50 | 92 | 1007.9 |
| 20260505123004 | 56 | 201 | 5.0 | 10.0 | 0.00 | 0.50 | 0.50 | 93 | 1007.3 |
| 20260505121505 | 55 | 179 | 5.0 | 10.0 | 0.00 | 0.50 | 0.50 | 94 | 1007.3 |
| 20260505120006 | 54 | 197 | 5.0 | 8.0 | 0.00 | 0.50 | 0.50 | 94 | 1007.6 |
| 20260505114602 | 54 | 179 | 6.0 | 10.0 | 0.00 | 0.50 | 0.50 | 94 | 1007.5 |
| 20260505113114 | 54 | 184 | 3.0 | 8.0 | 0.00 | 0.50 | 0.50 | 94 | 1007.5 |
| 20260505111552 | 54 | 180 | 4.0 | 8.0 | 0.00 | 0.50 | 0.50 | 94 | 1007.1 |
| 20260505101552 | 54 | 195 | 10.0 | 15.0 | 0.00 | 0.50 | 0.50 | 94 | 1006.1 |
| 20260505100046 | 54 | 178 | 9.0 | 17.0 | 0.01 | 0.50 | 0.50 | 95 | 1005.8 |
| 20260505094545 | 54 | 188 | 12.0 | 20.0 | 0.02 | 0.50 | 0.50 | 95 | 1005.7 |
| 20260505093050 | 54 | 168 | 11.0 | 17.0 | 0.03 | 0.50 | 0.50 | 95 | 1005.6 |
| 20260505091550 | 54 | 189 | 9.0 | 15.0 | 0.07 | 0.50 | 0.50 | 95 | 1006.8 |
| 20260505090041 | 54 | 172 | 6.0 | 9.0 | 0.16 | 0.49 | 0.49 | 94 | 1007.3 |
| 20260505084538 | 54 | 213 | 2.0 | 5.0 | 0.21 | 0.48 | 0.48 | 94 | 1007.9 |
| 20260505083036 | 54 | 252 | 3.0 | 7.0 | 0.23 | 0.47 | 0.47 | 94 | 1008.1 |
| 20260505081534 | 54 | 259 | 3.0 | 8.0 | 0.25 | 0.43 | 0.43 | 94 | 1008.0 |
| 20260505080039 | 54 | 258 | 0.0 | 3.0 | 0.21 | 0.33 | 0.33 | 93 | 1007.4 |
| 20260505074532 | 54 | 259 | 1.0 | 4.0 | 0.20 | 0.27 | 0.27 | 93 | 1007.5 |
| 20260505073030 | 55 | 260 | 0.0 | 3.0 | 0.23 | 0.24 | 0.24 | 92 | 1006.9 |
| 20260505071533 | 55 | 295 | 4.0 | 10.0 | 0.17 | 0.18 | 0.18 | 91 | 1007.5 |
| 20260505070027 | 56 | 297 | 6.0 | 10.0 | 0.11 | 0.11 | 0.11 | 90 | 1007.8 |
| 20260505064523 | 57 | 300 | 9.0 | 15.0 | 0.07 | 0.07 | 0.07 | 88 | 1007.9 |
| 20260505063019 | 58 | 306 | 10.0 | 26.0 | 0.01 | 0.01 | 0.01 | 83 | 1008.0 |
| 20260505061517 | 63 | 298 | 20.0 | 34.0 | 0.01 | 0.01 | 0.01 | 71 | 1007.5 |
| 20260505060032 | 65 | 234 | 8.0 | 18.0 | 0.00 | 0.00 | 0.00 | 64 | 1006.2 |
| 20260505054511 | 65 | 207 | 9.0 | 20.0 | 0.00 | 0.00 | 0.00 | 62 | 1005.5 |
| 20260505053005 | 65 | 214 | 11.0 | 18.0 | 0.00 | 0.00 | 0.00 | 63 | 1004.8 |
| 20260505051510 | 65 | 200 | 10.0 | 21.0 | 0.00 | 0.00 | 0.00 | 63 | 1004.8 |
| 20260505041559 | 65 | 190 | 11.0 | 18.0 | 0.00 | 0.00 | 0.00 | 65 | 1004.6 |
| 20260505040050 | 65 | 217 | 10.0 | 22.0 | 0.00 | 0.00 | 0.00 | 66 | 1004.7 |
| 20260505034553 | 65 | 195 | 12.0 | 20.0 | 0.00 | 0.00 | 0.00 | 65 | 1004.8 |
| 20260505033050 | 65 | 187 | 9.0 | 15.0 | 0.00 | 0.00 | 0.00 | 65 | 1005.0 |
| 20260505031554 | 65 | 197 | 8.0 | 13.0 | 0.00 | 0.00 | 0.00 | 65 | 1005.2 |
| 20260505030049 | 65 | 216 | 9.0 | 17.0 | 0.00 | 0.00 | 0.00 | 65 | 1005.1 |
| 20260505024554 | 66 | 193 | 8.0 | 15.0 | 0.00 | 0.00 | 0.00 | 64 | 1005.2 |
| 20260505023052 | 66 | 185 | 7.0 | 16.0 | 0.00 | 0.00 | 0.00 | 63 | 1005.2 |
| 20260505021547 | 66 | 221 | 8.0 | 16.0 | 0.00 | 0.00 | 0.00 | 63 | 1005.1 |
| 20260505020046 | 66 | 201 | 8.0 | 12.0 | 0.00 | 0.00 | 0.00 | 62 | 1004.8 |
| 20260505014547 | 66 | 201 | 6.0 | 14.0 | 0.00 | 0.00 | 0.00 | 62 | 1004.7 |
| 20260505013100 | 67 | 203 | 9.0 | 19.0 | 0.00 | 0.00 | 0.00 | 61 | 1004.4 |
| 20260505011547 | 67 | 191 | 8.0 | 15.0 | 0.00 | 0.00 | 0.00 | 60 | 1004.4 |
| 20260505010053 | 68 | 187 | 10.0 | 17.0 | 0.00 | 0.00 | 0.00 | 58 | 1004.2 |
| 20260505004548 | 69 | 181 | 8.0 | 17.0 | 0.00 | 0.00 | 0.00 | 56 | 1004.1 |
| 20260505003044 | 69 | 207 | 10.0 | 20.0 | 0.00 | 0.00 | 0.00 | 54 | 1004.0 |
| 20260505001543 | 70 | 215 | 10.0 | 21.0 | 0.00 | 0.00 | 0.00 | 54 | 1004.0 |
| 20260505000053 | 70 | 206 | 10.0 | 16.0 | 0.00 | 0.00 | 0.00 | 54 | 1004.1 |
| 20260504234539 | 71 | 210 | 11.0 | 17.0 | 0.00 | 0.00 | 0.00 | 55 | 1004.2 |
| 20260504233043 | 70 | 197 | 9.0 | 15.0 | 0.00 | 0.00 | 0.00 | 58 | 1004.4 |
| 20260504231535 | 70 | 200 | 11.0 | 18.0 | 0.00 | 0.00 | 0.00 | 59 | 1004.6 |
| 20260504230034 | 69 | 187 | 11.0 | 18.0 | 0.00 | 0.00 | 0.00 | 59 | 1004.9 |
| 20260504224533 | 69 | 199 | 12.0 | 21.0 | 0.00 | 0.00 | 0.00 | 59 | 1005.1 |
| 20260504223038 | 70 | 208 | 11.0 | 20.0 | 0.00 | 0.00 | 0.00 | 59 | 1005.0 |
| 20260504221531 | 69 | 188 | 10.0 | 16.0 | 0.00 | 0.00 | 0.00 | 61 | 1005.3 |
| 20260504220040 | 68 | 189 | 12.0 | 22.0 | 0.00 | 0.00 | 0.00 | 61 | 1005.4 |
| 20260504214535 | 68 | 170 | 10.0 | 17.0 | 0.00 | 0.00 | 0.00 | 64 | 1005.5 |
| 20260504213028 | 66 | 200 | 9.0 | 19.0 | 0.00 | 0.00 | 0.00 | 69 | 1005.4 |
| 20260504211534 | 67 | 201 | 12.0 | 18.0 | 0.00 | 0.00 | 0.00 | 66 | 1005.7 |